Gillette, WY

3:45 PM MDT on September 16, 2014 (GMT -0600)
Johnson County | Change Station
CLOSE
Current Station
Airport
Location: Buffalo,
Elevation: 4967 ft
Nearby Weather Stations

Elev 4967 ft 44.38 °N, 106.72 °W | Updated 52 minutes ago

Clear
Clear
82 °F
Feels Like 82 °F
N
12
Wind Variable Wind from North

Today
High -- | Low -- °F
--% Chance of Precip.
Yesterday
High -- | Low -- °F
Precip. -- in
6:42 AM 7:11 PM
Last Quarter, 42% visible
Pressure 29.90 in
Visibility 10.0 miles
Clouds Clear
Dew Point 36 °F
Humidity 19%
Rainfall 0.00 in
Snow Depth 0 in , 0 in , 0 in
UV 6 out of 12
Pollen 5.90 out of 12
Air Quality Not available.
Flu Activity Not available.
METAR KBYG 162053Z AUTO 01010KT 10SM CLR 28/02 A3006 RMK AO2 SLP125 T02780022 56007

More Conditions Fewer Conditions

Pressure 29.90 in
Visibility 10.0 miles
Clouds Clear
Dew Point 36 °F
Humidity 19%
Rainfall 0.00 in
Snow Depth 0 in , 0 in , 0 in
UV 6 out of 12
Pollen 5.90 out of 12
Air Quality Not available.
Flu Activity Not available.
METAR KBYG 162053Z AUTO 01010KT 10SM CLR 28/02 A3006 RMK AO2 SLP125 T02780022 56007

More Conditions Fewer Conditions

10-Day Weather Forecast

Almanac

Astronomy

Sep. 16, 2014 Rise Set
Actual Time 6:42 AM MDT 7:11 PM MDT
Civil Twilight 6:13 AM MDT 7:40 PM MDT
Nautical Twilight 5:38 AM MDT 8:14 PM MDT
Astronomical Twilight 5:03 AM MDT 8:50 PM MDT
Moon No Moon Rise 2:47 PM MDT
Length of Visible Light 13h 26m
Length of Day
12h 28m
Tomorrow will be 3m 3s shorter.
Last Quarter, 42% of the Moon is Illuminated
Today
Last Quarter
Sep 24
New
Oct 1
First Quarter
Oct 8
Full
Oct 15
Last Quarter

Today's Extremes

State Highs State Lows

Community

WunderPhotos

Upload Photos

1,753,895 photos uploaded!

Nearby

Snow Depth

Station Depth Elevation
Phillips Bench 0 in 8200 ft
Salt River Summit 0 in 7600 ft
Evening Star 0 in 9200 ft
Sylvan Road 0 in 7120 ft
Spring Creek Divide 0 in 9000 ft

Earthquake Activity

City Distance Mag. Time & Date
No recent earthquake activity has been reported nearby.
Minimum magnitude displayed is 2.5.

Coastal Water Temperatures

Place Temperature
No Stations Reporting

Nearby Weather Stations